Weather History for Pinedale, WY

Change the Weather History Date:

Wednesday, January 16, 2013

  Actual Average (KBPI) Record (KBPI)
Temperature  
Mean Temperature 13 °F 11 °F  
Max Temperature 30 °F 26 °F 41 °F (1999)
Min Temperature -4 °F -4 °F -24 °F (1989)
Degree Days  
Heating Degree Days 52 54  
Month to date heating degree days 864  
Since 1 July heating degree days 5303  
Cooling Degree Days 0 0  
Month to date cooling degree days 0  
Year to date cooling degree days 0  
Moisture  
Dew Point 7 °F    
Average Humidity 70    
Maximum Humidity 92    
Minimum Humidity 51    
Precipitation  
Precipitation 0.00 in 0.01 in 0.03 in (1999)
Month to date precipitation 0.17  
Year to date precipitation 0.17  
Sea Level Pressure  
Sea Level Pressure 30.31 in    
Wind  
Wind Speed 12 mph (NNW)    
Max Wind Speed 31 mph    
Max Gust Speed 37 mph    
Visibility 9 miles    
Events      
T = Trace of Precipitation, MM = Missing Value Source: NWS Daily Summary

Daily Weather History Graph

Daily Weather History Graph

Search for Another Location

Airport:

Trip Planner

Search our weather history database for the weather conditions in past years. The results will help you decide how hot, cold, wet, or windy it might be!

Date:

Astronomy

Jan. 16, 2013 Rise Set
Actual Time 7:46 AM MST 5:12 PM MST
Civil Twilight 7:15 AM MST 5:43 PM MST
Nautical Twilight 6:40 AM MST 6:18 PM MST
Astronomical Twilight 6:06 AM MST 6:52 PM MST
Moon 10:15 AM MST (1/16) 11:17 PM MST (1/16)
Length of Visible Light 10h 28m
Length of Day
9h 25m
Waxing Crescent, 29% of the Moon is Illuminated
Jan 16
Waxing Crescent
Jan 18
First Quarter
Jan 26
Full
Feb 3
Last Quarter
Feb 10
New

Hourly Weather History & Observations

Time (MST) Temp. Windchill Dew Point Humidity Pressure Visibility Wind Dir Wind Speed Gust Speed Precip Events Conditions
12:15 AM 1.4 °F - -0.4 °F 92% 30.27 in 10.0 mi Calm Calm - N/A   Clear
12:35 AM 1.4 °F - -2.2 °F 85% 30.29 in 10.0 mi Calm Calm - N/A   Clear
12:55 AM -0.4 °F - -4.0 °F 85% 30.28 in 10.0 mi Calm Calm - N/A   Clear
1:35 AM -2.2 °F -10.4 °F -5.8 °F 85% 30.29 in 10.0 mi ENE 3.5 mph - N/A   Clear
1:55 AM -0.4 °F -14.7 °F -2.2 °F 92% 30.29 in 10.0 mi East 8.1 mph - N/A   Clear
2:15 AM -4.0 °F -16.3 °F -5.8 °F 92% 30.29 in 10.0 mi East 5.8 mph - N/A   Clear
2:35 AM -0.4 °F -14.7 °F -4.0 °F 85% 30.29 in 10.0 mi SE 8.1 mph - N/A   Clear
2:55 AM -0.4 °F -13.4 °F -4.0 °F 85% 30.29 in 10.0 mi East 6.9 mph - N/A   Clear
3:15 AM -0.4 °F -8.3 °F -4.0 °F 85% 30.28 in 10.0 mi SSE 3.5 mph - N/A   Scattered Clouds
3:35 AM 1.4 °F - -0.4 °F 92% 30.27 in 10.0 mi Calm Calm - N/A   Clear
3:55 AM 10.4 °F -1.5 °F 6.8 °F 85% 30.27 in 10.0 mi North 8.1 mph - N/A   Scattered Clouds
4:35 AM 10.4 °F -6.6 °F 8.6 °F 92% 30.27 in 10.0 mi NW 16.1 mph 19.6 mph N/A   Scattered Clouds
4:55 AM 14.0 °F -5.8 °F 10.4 °F 86% 30.24 in 7.0 mi WNW 26.5 mph 32.2 mph N/A   Clear
5:35 AM 17.6 °F -1.6 °F 10.4 °F 73% 30.22 in 3.0 mi WNW 28.8 mph 33.4 mph N/A   Haze
5:55 AM 17.6 °F -2.2 °F 10.4 °F 73% 30.22 in 3.0 mi WNW 31.1 mph 35.7 mph N/A   Haze
6:15 AM 19.4 °F 0.8 °F 10.4 °F 68% 30.23 in 3.0 mi WNW 28.8 mph 34.5 mph N/A   Haze
6:35 AM 19.4 °F 1.4 °F 10.4 °F 68% 30.23 in 5.0 mi WNW 26.5 mph 34.5 mph N/A   Haze
6:55 AM 19.4 °F 1.4 °F 10.4 °F 68% 30.24 in 5.0 mi WNW 26.5 mph - N/A   Haze
7:15 AM 19.4 °F 0.8 °F 10.4 °F 68% 30.25 in 4.0 mi NW 28.8 mph 36.8 mph N/A   Haze
7:35 AM 19.4 °F 0.5 °F 12.2 °F 74% 30.25 in 4.0 mi WNW 29.9 mph 35.7 mph N/A   Haze
7:55 AM 21.2 °F 3.3 °F 12.2 °F 68% 30.25 in 4.0 mi WNW 28.8 mph 33.4 mph N/A   Haze
8:15 AM 21.2 °F 8.9 °F 12.2 °F 68% 30.28 in 5.0 mi North 12.7 mph 34.5 mph N/A   Haze
8:35 AM 12.2 °F -0.2 °F 5.0 °F 73% 30.30 in 10.0 mi North 9.2 mph 24.2 mph N/A   Clear
8:55 AM 5.0 °F -5.6 °F 1.4 °F 85% 30.31 in 10.0 mi East 5.8 mph - N/A   Clear
9:15 AM 6.8 °F -8.6 °F 1.4 °F 79% 30.31 in 10.0 mi East 11.5 mph - N/A   Clear
9:35 AM 8.6 °F -6.3 °F 3.2 °F 79% 30.32 in 10.0 mi East 11.5 mph - N/A   Clear
9:55 AM 10.4 °F -2.4 °F 5.0 °F 79% 30.32 in 10.0 mi East 9.2 mph 17.3 mph N/A   Clear
10:15 AM 10.4 °F -2.4 °F 5.0 °F 79% 30.33 in 10.0 mi ESE 9.2 mph - N/A   Clear
10:35 AM 12.2 °F -2.5 °F 5.0 °F 73% 30.34 in 10.0 mi East 12.7 mph - N/A   Clear
10:55 AM 12.2 °F -2.5 °F 5.0 °F 73% 30.34 in 10.0 mi East 12.7 mph - N/A   Clear
11:15 AM 12.2 °F -1.8 °F 5.0 °F 73% 30.34 in 10.0 mi East 11.5 mph - N/A   Mostly Cloudy
11:35 AM 12.2 °F -1.8 °F 6.8 °F 79% 30.33 in 10.0 mi ESE 11.5 mph - N/A   Mostly Cloudy
11:55 AM 14.0 °F 1.2 °F 6.8 °F 73% 30.32 in 10.0 mi ESE 10.4 mph - N/A   Mostly Cloudy
12:15 PM 14.0 °F 0.5 °F 8.6 °F 79% 30.31 in 10.0 mi ESE 11.5 mph - N/A   Mostly Cloudy
12:35 PM 15.8 °F 2.1 °F 8.6 °F 73% 30.31 in 10.0 mi ESE 12.7 mph - N/A   Mostly Cloudy
1:15 PM 17.6 °F 5.0 °F 10.4 °F 73% 30.31 in 10.0 mi East 11.5 mph - N/A   Clear
1:35 PM 19.4 °F 8.6 °F 10.4 °F 68% 30.30 in 10.0 mi ESE 9.2 mph 16.1 mph N/A   Scattered Clouds
1:55 PM 21.2 °F 7.8 °F 10.4 °F 63% 30.29 in 10.0 mi ESE 15.0 mph 19.6 mph N/A   Mostly Cloudy
2:15 PM 19.4 °F 6.0 °F 12.2 °F 74% 30.29 in 10.0 mi ESE 13.8 mph - N/A   Overcast
2:35 PM 21.2 °F 8.3 °F 12.2 °F 68% 30.30 in 10.0 mi East 13.8 mph - N/A   Overcast
2:55 PM 23.0 °F 18.4 °F 12.2 °F 63% 30.31 in 10.0 mi NE 3.5 mph - N/A   Overcast
3:15 PM 23.0 °F 18.4 °F 12.2 °F 63% 30.31 in 10.0 mi NE 3.5 mph - N/A   Overcast
3:35 PM 30.2 °F 17.4 °F 14.0 °F 51% 30.31 in 10.0 mi WNW 20.7 mph 25.3 mph N/A   Scattered Clouds
3:55 PM 30.2 °F 16.5 °F 14.0 °F 51% 30.31 in 10.0 mi WNW 24.2 mph - N/A   Clear
4:15 PM 28.4 °F 13.8 °F 14.0 °F 55% 30.32 in 7.0 mi WNW 25.3 mph 29.9 mph N/A   Clear
4:55 PM 26.6 °F 13.4 °F 12.2 °F 55% 30.32 in 10.0 mi NW 18.4 mph - N/A   Clear
5:15 PM 26.6 °F 14.7 °F 10.4 °F 51% 30.33 in 10.0 mi NW 15.0 mph - N/A   Clear
5:35 PM 23.0 °F 10.6 °F 10.4 °F 59% 30.34 in 10.0 mi NW 13.8 mph - N/A   Clear
5:55 PM 23.0 °F 9.6 °F 10.4 °F 59% 30.34 in 10.0 mi NW 16.1 mph - N/A   Clear
6:15 PM 21.2 °F 6.8 °F 10.4 °F 63% 30.34 in 10.0 mi NW 17.3 mph - N/A   Clear
6:35 PM 19.4 °F 7.2 °F 10.4 °F 68% 30.34 in 10.0 mi NNW 11.5 mph - N/A   Clear
6:55 PM 17.6 °F 4.3 °F 8.6 °F 68% 30.35 in 10.0 mi NNW 12.7 mph - N/A   Clear
7:15 PM 17.6 °F 3.7 °F 8.6 °F 68% 30.35 in 10.0 mi NW 13.8 mph - N/A   Clear
7:35 PM 21.2 °F 5.6 °F 8.6 °F 58% 30.35 in 10.0 mi WNW 20.7 mph - N/A   Clear
7:55 PM 19.4 °F 3.2 °F 8.6 °F 63% 30.35 in 10.0 mi WNW 20.7 mph - N/A   Clear
8:15 PM 21.2 °F 4.5 °F 8.6 °F 58% 30.35 in 10.0 mi WNW 24.2 mph - N/A   Clear
8:35 PM 21.2 °F 6.0 °F 8.6 °F 58% 30.35 in 10.0 mi WNW 19.6 mph - N/A   Clear
8:55 PM 23.0 °F 8.3 °F 8.6 °F 54% 30.35 in 10.0 mi WNW 19.6 mph - N/A   Clear
9:15 PM 23.0 °F 8.3 °F 8.6 °F 54% 30.36 in 10.0 mi WNW 19.6 mph - N/A   Clear
9:35 PM 21.2 °F 9.5 °F 8.6 °F 58% 30.36 in 10.0 mi WNW 11.5 mph - N/A   Clear
9:55 PM 21.2 °F 6.8 °F 8.6 °F 58% 30.35 in 10.0 mi WNW 17.3 mph - N/A   Clear
10:15 PM 21.2 °F 6.8 °F 8.6 °F 58% 30.35 in 10.0 mi WNW 17.3 mph - N/A   Clear
10:35 PM 19.4 °F 5.0 °F 8.6 °F 63% 30.36 in 10.0 mi WNW 16.1 mph - N/A   Clear
10:55 PM 21.2 °F 6.4 °F 8.6 °F 58% 30.36 in 10.0 mi WNW 18.4 mph - N/A   Clear
11:15 PM 21.2 °F 6.0 °F 10.4 °F 63% 30.37 in 10.0 mi WNW 19.6 mph - N/A   Clear
11:35 PM 23.0 °F 8.3 °F 8.6 °F 54% 30.37 in 10.0 mi WNW 19.6 mph - N/A   Clear
11:55 PM 23.0 °F 11.1 °F 10.4 °F 59% 30.38 in 10.0 mi WNW 12.7 mph - N/A   Clear